"startDT [UTC]","vpos","CH4 [ppm]","stdev(CH4) [ppm]","CO2 [ppm]","stdev(CO2) [ppm]","H2O [ppm]","stdev(H2O)","p_LGR [torr]","T_LGR [C]","mt1_LGR [us]","mt2_LGR [us]","T_ECpre [C]","T_EC1 [C]","T_EC2 [C]","p_inlet [hPa]","p_in [hPa]","p_out [hPa]","T_inlet [C]","RH_inlet [%]","dwpt_inlet [C]","T_vent [C]","RH_vent [%]","dwpt_vent [C]","flow_vent [l min-1]","flow_inlet [l min-1]","dwpt_sample [C]","T_room [C]"
2012-02-04 00:00:00,0.0,1.9109,0.0010,400.81,0.37,1.5,7.7,138.15,28.18,24.60,36.31,0.04,-272.73,-272.73,-51,559,-925,22.5,2.3,-27.6,22.4,2.4,-27.4,5.73,2.28,-28.5,26.6
2012-02-04 00:01:00,0.0,1.9110,0.0010,400.64,0.43,3.3,10.6,138.14,28.17,24.60,36.31,0.04,-272.74,-272.74,-49,559,-923,22.5,2.3,-27.6,22.5,2.4,-27.4,5.73,2.48,-28.4,26.7
2012-02-04 00:02:00,0.0,1.9113,0.0011,400.70,0.40,4.4,14.1,138.14,28.17,24.60,36.31,0.04,-272.74,-272.74,-49,559,-923,22.5,2.3,-27.6,22.5,2.4,-27.4,5.73,2.29,-28.3,26.9
2012-02-04 00:03:00,0.0,1.9112,0.0008,400.64,0.41,7.9,18.8,138.14,28.17,24.59,36.31,0.04,-272.73,-272.74,-49,559,-923,22.6,2.3,-27.6,22.5,2.4,-27.3,5.73,2.38,-28.3,27.0
2012-02-04 00:04:00,0.0,1.9115,0.0009,400.79,0.44,10.4,18.1,138.13,28.18,24.59,36.32,0.04,-272.74,-272.74,-48,559,-923,22.6,2.3,-27.5,22.5,2.4,-27.2,5.73,2.41,-28.2,27.1
2012-02-04 00:05:00,0.0,1.9116,0.0010,400.80,0.39,12.8,19.6,138.13,28.19,24.59,36.31,0.04,-272.73,-272.74,-49,559,-923,22.6,2.3,-27.4,22.6,2.4,-27.1,5.73,2.28,-28.1,27.2
2012-02-04 00:06:00,0.0,1.9118,0.0009,400.61,0.43,23.9,27.2,138.13,28.20,24.60,36.32,0.04,-272.74,-272.74,-49,559,-923,22.6,2.4,-27.4,22.6,2.4,-27.0,5.73,2.48,-28.0,27.2
2012-02-04 00:07:00,0.0,1.9123,0.0009,400.77,0.45,30.9,24.9,138.12,28.21,24.60,36.32,0.04,-272.74,-272.74,-48,560,-923,22.7,2.3,-27.4,22.6,2.4,-27.1,5.73,2.25,-28.0,27.3
2012-02-04 00:08:00,0.0,1.9128,0.0010,400.75,0.48,26.8,22.3,138.12,28.22,24.59,36.32,0.04,-272.74,-272.73,-49,559,-923,22.7,2.3,-27.4,22.7,2.4,-27.0,5.73,2.48,-27.9,27.4
2012-02-04 00:09:00,0.0,1.9130,0.0011,400.75,0.41,33.8,28.7,138.12,28.23,24.60,36.31,0.04,-272.74,-272.74,-48,559,-923,22.7,2.3,-27.4,22.7,2.4,-27.0,5.73,2.27,-27.8,27.4
2012-02-04 00:10:00,0.0,1.9137,0.0009,400.92,0.44,43.9,28.5,138.12,28.24,24.59,36.31,0.04,-272.74,-272.74,-49,559,-923,22.7,2.3,-27.4,22.7,2.4,-27.1,5.73,2.43,-27.8,27.5
2012-02-04 00:11:00,0.0,1.9138,0.0009,400.79,0.42,51.3,28.3,138.11,28.26,24.60,36.32,0.04,-272.74,-272.74,-48,559,-923,22.7,2.3,-27.5,22.7,2.4,-27.1,5.73,2.33,-27.7,27.5
2012-02-04 00:12:00,0.0,1.9148,0.0009,400.94,0.40,51.9,34.2,138.11,28.28,24.59,36.31,0.04,-272.74,-272.74,-48,560,-923,22.8,2.3,-27.4,22.8,2.4,-27.2,5.73,2.36,-27.7,27.5
2012-02-04 00:13:00,0.0,1.9143,0.0009,400.94,0.45,63.2,33.7,138.11,28.29,24.60,36.31,0.04,-272.74,-272.74,-49,560,-923,22.8,2.3,-27.4,22.8,2.4,-27.2,5.73,2.40,-27.6,27.6
2012-02-04 00:14:00,0.0,1.9151,0.0010,400.92,0.43,61.2,33.0,138.11,28.31,24.60,36.32,0.04,-272.73,-272.74,-48,560,-923,22.9,2.3,-27.4,22.8,2.4,-27.0,5.73,2.30,-27.5,27.6
2012-02-04 00:15:00,0.0,1.9154,0.0007,400.91,0.41,73.0,29.0,138.11,28.32,24.59,36.32,0.04,-272.73,-272.74,-48,560,-923,22.9,2.3,-27.4,22.9,2.4,-27.0,5.73,2.45,-27.5,27.6
2012-02-04 00:16:00,0.0,1.9158,0.0009,400.91,0.40,82.8,32.5,138.11,28.34,24.60,36.32,0.04,-272.74,-272.74,-49,560,-923,22.9,2.3,-27.3,22.9,2.4,-27.0,5.73,2.25,-27.4,27.6
2012-02-04 00:17:00,0.0,1.9155,0.0009,401.01,0.41,70.6,35.9,138.11,28.35,24.60,36.31,0.04,-272.74,-272.74,-48,560,-923,22.9,2.3,-27.4,22.9,2.4,-27.1,5.73,2.45,-27.5,27.2
2012-02-04 00:18:00,0.0,1.9153,0.0009,400.98,0.37,71.6,39.3,138.11,28.36,24.60,36.32,0.04,-272.74,-272.74,-48,560,-923,22.9,2.3,-27.5,22.9,2.4,-27.1,5.73,2.42,-27.6,26.8
2012-02-04 00:19:00,0.0,1.9147,0.0008,400.86,0.37,50.0,36.6,138.12,28.36,24.60,36.32,0.04,-272.74,-272.74,-49,561,-924,22.9,2.3,-27.4,22.8,2.4,-27.1,5.73,2.39,-27.7,26.7
2012-02-04 00:20:00,0.0,1.9141,0.0008,400.80,0.40,34.4,32.4,138.13,28.35,24.60,36.33,0.04,-272.74,-272.74,-49,561,-924,22.8,2.3,-27.4,22.8,2.4,-27.2,5.73,2.38,-27.9,26.4
2012-02-04 00:21:00,0.0,1.9133,0.0008,400.88,0.45,27.4,25.9,138.13,28.34,24.60,36.33,0.04,-272.74,-272.74,-49,561,-924,22.8,2.3,-27.5,22.7,2.4,-27.2,5.73,2.37,-28.0,26.2
2012-02-04 00:22:00,0.0,1.9128,0.0009,400.95,0.44,12.8,19.8,138.14,28.32,24.60,36.32,0.04,-272.74,-272.74,-49,561,-924,22.7,2.3,-27.5,22.7,2.4,-27.1,5.73,2.37,-28.2,26.0
2012-02-04 00:23:00,0.0,1.9124,0.0011,400.91,0.40,7.1,18.2,138.14,28.30,24.60,36.31,0.04,-272.74,-272.74,-49,560,-924,22.7,2.3,-27.5,22.6,2.4,-27.2,5.73,2.36,-28.3,25.9
2012-02-04 00:24:00,0.0,1.9123,0.0008,400.87,0.47,4.6,12.8,138.15,28.28,24.60,36.32,0.04,-272.74,-272.74,-49,560,-924,22.6,2.3,-27.6,22.5,2.4,-27.2,5.73,2.35,-28.4,25.7
2012-02-04 00:25:00,0.0,1.9125,0.0008,400.99,0.51,1.8,10.4,138.15,28.25,24.59,36.31,0.04,-272.74,-272.73,-48,560,-922,22.6,2.3,-27.6,22.5,2.4,-27.3,5.73,2.35,-28.6,25.6
2012-02-04 00:26:00,0.0,1.9121,0.0008,401.05,0.38,1.3,9.5,138.16,28.23,24.60,36.31,0.04,-272.74,-272.74,-49,560,-924,22.5,2.3,-27.6,22.4,2.4,-27.3,5.73,2.36,-28.7,25.7
2012-02-04 00:27:00,0.0,1.9120,0.0010,401.09,0.41,0.1,6.9,138.16,28.20,24.60,36.32,0.04,-272.74,-272.74,-49,560,-923,22.5,2.3,-27.7,22.4,2.4,-27.3,5.73,2.42,-28.7,26.1
2012-02-04 00:28:00,0.0,1.9118,0.0009,400.99,0.39,3.2,10.5,138.15,28.18,24.60,36.32,0.04,-272.73,-272.73,-48,560,-921,22.5,2.3,-27.6,22.4,2.4,-27.3,5.73,2.32,-28.7,26.4
2012-02-04 00:29:00,0.0,1.9114,0.0010,400.96,0.46,2.3,7.9,138.15,28.17,24.60,36.31,0.04,-272.74,-272.74,-49,559,-923,22.5,2.4,-27.5,22.4,2.4,-27.2,5.73,2.29,-28.5,26.6
2012-02-04 00:30:00,0.0,1.9114,0.0010,400.89,0.47,2.3,9.7,138.14,28.17,24.60,36.32,0.04,-272.74,-272.74,-49,559,-923,22.5,2.4,-27.4,22.4,2.4,-27.2,5.73,2.49,-28.4,26.7
2012-02-04 00:31:00,0.0,1.9116,0.0010,400.83,0.44,3.3,9.5,138.14,28.16,24.60,36.31,0.04,-272.73,-272.73,-49,559,-923,22.5,2.4,-27.4,22.5,2.4,-27.1,5.73,2.29,-28.4,26.9
2012-02-04 00:32:00,0.0,1.9121,0.0009,400.94,0.45,9.3,16.5,138.14,28.17,24.59,36.31,0.04,-272.74,-272.74,-48,559,-923,22.5,2.3,-27.5,22.5,2.4,-27.1,5.73,2.38,-28.3,27.0
2012-02-04 00:33:00,0.0,1.9123,0.0010,400.79,0.49,8.2,16.4,138.13,28.17,24.59,36.32,0.04,-272.74,-272.74,-49,559,-923,22.5,2.3,-27.5,22.5,2.4,-27.2,5.73,2.42,-28.2,27.1
2012-02-04 00:34:00,0.0,1.9127,0.0009,400.99,0.41,15.7,20.8,138.13,28.18,24.59,36.31,0.04,-272.74,-272.74,-49,559,-923,22.6,2.3,-27.5,22.6,2.4,-27.2,5.73,2.28,-28.1,27.1
2012-02-04 00:35:00,0.0,1.9127,0.0009,400.90,0.42,23.2,25.4,138.12,28.19,24.60,36.31,0.04,-272.74,-272.74,-48,559,-923,22.6,2.3,-27.5,22.6,2.4,-27.2,5.73,2.49,-28.1,27.2
2012-02-04 00:36:00,0.0,1.9137,0.0009,400.88,0.42,22.4,24.8,138.12,28.20,24.59,36.32,0.04,-272.74,-272.74,-49,559,-923,22.6,2.3,-27.5,22.6,2.4,-27.3,5.73,2.26,-28.0,27.3
2012-02-04 00:37:00,0.0,1.9137,0.0010,400.73,0.35,36.9,35.2,138.12,28.21,24.60,36.33,0.04,-272.74,-272.74,-48,560,-923,22.7,2.3,-27.6,22.7,2.4,-27.2,5.73,2.45,-27.9,27.3
2012-02-04 00:38:00,0.0,1.9139,0.0010,400.85,0.47,35.8,30.0,138.12,28.22,24.60,36.32,0.04,-272.74,-272.74,-48,560,-923,22.7,2.3,-27.6,22.7,2.4,-27.3,5.73,2.34,-27.9,27.4
2012-02-04 00:39:00,0.0,1.9143,0.0009,400.96,0.39,42.7,28.9,138.11,28.24,24.60,36.32,0.04,-272.74,-272.74,-49,559,-923,22.7,2.3,-27.6,22.7,2.4,-27.2,5.73,2.35,-27.8,27.5
2012-02-04 00:40:00,0.0,1.9150,0.0010,401.07,0.41,48.9,35.0,138.11,28.25,24.60,36.32,0.04,-272.74,-272.74,-48,560,-922,22.7,2.3,-27.6,22.7,2.4,-27.3,5.73,2.44,-27.7,27.5
2012-02-04 00:41:00,0.0,1.9153,0.0009,400.90,0.40,56.4,33.5,138.11,28.27,24.60,36.32,0.04,-272.74,-272.74,-48,558,-923,22.8,2.3,-27.6,22.8,2.4,-27.3,5.73,2.27,-27.7,27.5
2012-02-04 00:42:00,0.0,1.9158,0.0011,400.96,0.37,64.0,28.5,138.11,28.28,24.59,36.32,0.04,-272.74,-272.74,-48,559,-924,22.8,2.3,-27.5,22.8,2.3,-27.3,5.73,2.48,-27.6,27.5
2012-02-04 00:43:00,0.0,1.9156,0.0008,401.01,0.42,70.1,34.3,138.11,28.30,24.60,36.32,0.04,-272.74,-272.74,-48,560,-923,22.8,2.3,-27.6,22.8,2.3,-27.3,5.73,2.26,-27.6,27.6
2012-02-04 00:44:00,0.0,1.9167,0.0010,401.08,0.43,66.5,28.9,138.11,28.31,24.59,36.32,0.04,-272.74,-272.74,-48,560,-923,22.9,2.3,-27.5,22.8,2.4,-27.2,5.73,2.45,-27.5,27.6
2012-02-04 00:45:00,0.0,1.9162,0.0010,401.02,0.37,70.4,29.1,138.11,28.33,24.60,36.32,0.04,-272.74,-272.74,-47,562,-924,22.9,2.3,-27.5,22.9,2.3,-27.2,5.73,2.31,-27.4,27.7
2012-02-04 00:46:00,0.0,1.9165,0.0011,401.18,0.44,80.0,31.7,138.11,28.35,24.60,36.32,0.04,-272.74,-272.74,-48,560,-924,22.9,2.3,-27.5,22.9,2.3,-27.2,5.73,2.34,-27.4,27.4
2012-02-04 00:47:00,0.0,1.9166,0.0011,401.05,0.34,64.8,33.1,138.11,28.36,24.60,36.32,0.04,-272.74,-272.74,-48,561,-924,22.9,2.3,-27.5,22.9,2.3,-27.2,5.73,2.45,-27.5,27.0
2012-02-04 00:48:00,0.0,1.9160,0.0009,401.11,0.43,47.5,29.5,138.12,28.36,24.60,36.32,0.04,-272.74,-272.74,-48,561,-924,22.9,2.3,-27.5,22.9,2.4,-27.2,5.73,2.40,-27.7,26.7
2012-02-04 00:49:00,0.0,1.9152,0.0010,401.00,0.48,36.6,29.3,138.12,28.35,24.60,36.33,0.04,-272.74,-272.74,-48,561,-924,22.8,2.3,-27.6,22.8,2.4,-27.2,5.73,2.38,-27.8,26.5
2012-02-04 00:50:00,0.0,1.9146,0.0009,401.07,0.41,26.8,26.9,138.13,28.34,24.60,36.32,0.04,-272.74,-272.74,-48,561,-924,22.8,2.3,-27.6,22.7,2.4,-27.2,5.73,2.37,-28.0,26.3
2012-02-04 00:51:00,0.0,1.9141,0.0008,401.07,0.36,16.3,20.3,138.14,28.33,24.60,36.32,0.04,-272.73,-272.74,-49,561,-924,22.7,2.3,-27.6,22.7,2.4,-27.2,5.73,2.36,-28.1,26.1
2012-02-04 00:52:00,0.0,1.9133,0.0010,401.05,0.43,9.7,20.3,138.14,28.31,24.60,36.32,0.04,-272.74,-272.74,-49,561,-924,22.7,2.3,-27.5,22.6,2.4,-27.3,5.73,2.35,-28.3,25.9
2012-02-04 00:53:00,0.0,1.9134,0.0009,400.97,0.48,4.9,12.4,138.15,28.29,24.60,36.32,0.04,-272.74,-272.74,-49,560,-924,22.6,2.3,-27.5,22.6,2.4,-27.2,5.73,2.34,-28.4,25.7
2012-02-04 00:54:00,0.0,1.9131,0.0012,401.28,0.44,0.2,4.4,138.15,28.27,24.60,36.31,0.04,-272.74,-272.74,-49,560,-924,22.6,2.3,-27.6,22.5,2.4,-27.2,5.73,2.34,-28.5,25.6
2012-02-04 00:55:00,0.0,1.9133,0.0010,401.42,0.41,3.2,12.2,138.16,28.24,24.60,36.32,0.04,-272.74,-272.74,-49,558,-924,22.5,2.3,-27.6,22.4,2.4,-27.3,5.73,2.35,-28.6,25.5
2012-02-04 00:56:00,0.0,1.9129,0.0010,401.50,0.40,-0.1,3.9,138.16,28.21,24.60,36.32,0.04,-272.74,-272.74,-49,560,-924,22.5,2.3,-27.6,22.4,2.4,-27.3,5.73,2.41,-28.7,25.8
2012-02-04 00:57:00,0.0,1.9130,0.0010,401.62,0.54,-0.5,3.0,138.16,28.19,24.59,36.31,0.04,-272.73,-272.74,-50,559,-923,22.4,2.3,-27.7,22.4,2.4,-27.3,5.73,2.45,-28.7,26.1
2012-02-04 00:58:00,0.0,1.9127,0.0009,401.94,0.44,-0.8,1.1,138.15,28.17,24.60,36.31,0.04,-272.73,-272.74,-49,559,-923,22.5,2.3,-27.6,22.4,2.4,-27.3,5.73,2.32,-28.6,26.4
2012-02-04 00:59:00,0.0,1.9129,0.0009,402.04,0.39,0.4,5.0,138.15,28.17,24.60,36.32,0.04,-272.74,-272.74,-49,559,-924,22.5,2.3,-27.6,22.4,2.4,-27.4,5.73,2.31,-28.5,26.6
2012-02-04 01:00:00,0.0,1.9133,0.0009,402.13,0.47,1.4,6.0,138.14,28.16,24.59,36.31,0.04,-272.74,-272.74,-49,559,-923,22.5,2.3,-27.6,22.4,2.4,-27.4,5.73,2.49,-28.4,26.8
2012-02-04 01:01:00,0.0,1.9129,0.0009,402.33,0.39,6.5,15.2,138.14,28.16,24.60,36.32,0.04,-272.74,-272.74,-48,560,-924,22.5,2.3,-27.7,22.5,2.4,-27.4,5.73,2.26,-28.3,26.9
2012-02-04 01:02:00,0.0,1.9130,0.0010,402.52,0.42,7.4,15.7,138.13,28.17,24.60,36.31,0.04,-272.73,-272.73,-49,559,-923,22.5,2.3,-27.7,22.5,2.4,-27.4,5.73,2.42,-28.3,27.0
2012-02-04 01:03:00,0.0,1.9131,0.0010,402.85,0.33,12.9,20.8,138.13,28.17,24.60,36.32,0.04,-272.74,-272.74,-49,560,-923,22.6,2.3,-27.7,22.5,2.3,-27.5,5.73,2.39,-28.2,27.1
2012-02-04 01:04:00,0.0,1.9132,0.0009,403.01,0.47,15.8,21.8,138.13,28.18,24.60,36.31,0.04,-272.74,-272.74,-48,560,-924,22.6,2.3,-27.7,22.5,2.4,-27.4,5.73,2.29,-28.1,27.2
2012-02-04 01:05:00,0.0,1.9137,0.0009,402.43,0.45,18.7,26.5,138.12,28.19,24.59,36.32,0.04,-272.74,-272.74,-49,559,-924,22.6,2.3,-27.8,22.6,2.4,-27.4,5.73,2.49,-28.0,27.2
2012-02-04 01:06:00,0.0,1.9141,0.0009,402.19,0.39,26.1,25.4,138.12,28.21,24.59,36.31,0.04,-272.74,-272.74,-48,559,-923,22.6,2.3,-27.8,22.6,2.3,-27.4,5.73,2.26,-28.0,27.3
2012-02-04 01:07:00,0.0,1.9144,0.0010,401.55,0.49,35.4,30.4,138.12,28.22,24.60,36.32,0.04,-272.74,-272.74,-48,559,-923,22.7,2.3,-27.8,22.6,2.3,-27.5,5.73,2.45,-27.9,27.3
2012-02-04 01:08:00,0.0,1.9146,0.0009,401.20,0.46,37.9,27.7,138.12,28.23,24.60,36.33,0.04,-272.74,-272.74,-49,559,-923,22.7,2.3,-27.8,22.7,2.3,-27.4,5.73,2.34,-27.8,27.4
2012-02-04 01:09:00,0.0,1.9151,0.0010,401.17,0.41,37.4,30.2,138.12,28.24,24.60,36.33,0.04,-272.73,-272.74,-48,559,-924,22.7,2.3,-27.8,22.7,2.3,-27.5,5.73,2.33,-27.8,27.4
2012-02-04 01:10:00,0.0,1.9152,0.0008,401.27,0.39,51.2,29.9,138.11,28.26,24.60,36.32,0.04,-272.74,-272.74,-48,559,-923,22.7,2.2,-27.9,22.7,2.3,-27.5,5.73,2.46,-27.7,27.5
2012-02-04 01:11:00,0.0,1.9157,0.0010,401.25,0.39,53.7,33.8,138.11,28.27,24.60,36.32,0.04,-272.74,-272.74,-50,561,-923,22.7,2.2,-27.9,22.8,2.3,-27.4,5.73,2.25,-27.7,27.5
2012-02-04 01:12:00,0.0,1.9159,0.0009,401.29,0.35,62.6,38.6,138.11,28.29,24.60,36.32,0.04,-272.74,-272.74,-48,560,-924,22.8,2.2,-27.8,22.8,2.3,-27.4,5.73,2.48,-27.6,27.6
2012-02-04 01:13:00,0.0,1.9165,0.0009,401.22,0.52,60.4,28.5,138.11,28.30,24.60,36.32,0.04,-272.74,-272.74,-48,560,-924,22.8,2.2,-27.8,22.8,2.3,-27.4,5.73,2.29,-27.5,27.6
2012-02-04 01:14:00,0.0,1.9166,0.0009,401.06,0.48,70.7,33.9,138.11,28.32,24.60,36.32,0.04,-272.74,-272.74,-48,560,-924,22.9,2.2,-27.8,22.9,2.3,-27.4,5.73,2.40,-27.5,27.7
2012-02-04 01:15:00,0.0,1.9173,0.0008,401.15,0.48,56.1,31.8,138.11,28.33,24.60,36.32,0.04,-272.73,-272.74,-48,559,-922,22.9,2.2,-27.8,22.9,2.3,-27.4,5.73,2.39,-27.4,27.6
2012-02-04 01:16:00,0.0,1.9171,0.0011,401.06,0.42,72.7,28.3,138.11,28.34,24.60,36.32,0.04,-272.74,-272.74,-48,560,-924,22.9,2.2,-27.7,22.9,2.3,-27.4,5.73,2.28,-27.4,27.2
2012-02-04 01:17:00,0.0,1.9169,0.0007,401.04,0.34,68.2,34.3,138.11,28.35,24.60,36.32,0.04,-272.74,-272.74,-48,561,-924,22.9,2.2,-27.8,22.9,2.3,-27.4,5.73,2.37,-27.6,26.8
2012-02-04 01:18:00,0.0,1.9159,0.0008,401.08,0.45,48.6,32.6,138.12,28.35,24.60,36.32,0.04,-272.73,-272.74,-48,561,-924,22.9,2.2,-27.8,22.8,2.3,-27.4,5.73,2.38,-27.7,26.5
2012-02-04 01:19:00,0.0,1.9155,0.0010,400.98,0.41,38.2,32.8,138.13,28.34,24.60,36.33,0.04,-272.74,-272.74,-48,561,-924,22.8,2.2,-27.8,22.8,2.3,-27.5,5.73,2.37,-27.9,26.4
2012-02-04 01:20:00,0.0,1.9149,0.0010,401.05,0.42,23.2,28.7,138.13,28.33,24.59,36.33,0.04,-272.74,-272.74,-49,561,-924,22.8,2.2,-27.9,22.7,2.3,-27.5,5.73,2.36,-28.0,26.1
2012-02-04 01:21:00,0.0,1.9139,0.0011,400.97,0.47,8.5,16.4,138.14,28.31,24.60,36.32,0.04,-272.73,-272.74,-49,561,-924,22.7,2.2,-27.9,22.7,2.3,-27.5,5.73,2.37,-28.2,26.0
2012-02-04 01:22:00,0.0,1.9140,0.0010,400.91,0.40,3.0,10.1,138.14,28.29,24.59,36.32,0.04,-272.74,-272.74,-49,561,-924,22.6,2.2,-27.9,22.6,2.3,-27.6,5.73,2.38,-28.3,25.9
2012-02-04 01:23:00,0.0,1.9137,0.0011,401.16,0.44,3.7,15.1,138.15,28.27,24.60,36.31,0.04,-272.74,-272.74,-49,560,-925,22.6,2.2,-27.9,22.5,2.3,-27.6,5.73,2.39,-28.5,25.7
2012-02-04 01:24:00,0.0,1.9138,0.0008,401.08,0.37,3.5,12.0,138.15,28.25,24.60,36.32,0.04,-272.74,-272.74,-49,561,-925,22.5,2.2,-28.0,22.5,2.3,-27.6,5.73,2.40,-28.6,25.5
2012-02-04 01:25:00,0.0,1.9131,0.0009,401.15,0.40,0.6,10.6,138.16,28.22,24.60,36.32,0.04,-272.73,-272.74,-49,560,-924,22.5,2.2,-28.0,22.4,2.3,-27.6,5.73,2.40,-28.7,25.5
2012-02-04 01:26:00,0.0,1.9128,0.0010,401.14,0.39,0.7,5.1,138.16,28.19,24.60,36.32,0.04,-272.74,-272.74,-49,560,-924,22.4,2.2,-28.0,22.3,2.3,-27.7,5.73,2.33,-28.8,25.9
2012-02-04 01:27:00,0.0,1.9130,0.0008,401.26,0.47,-0.3,3.3,138.16,28.17,24.60,36.31,0.04,-272.74,-272.74,-46,558,-924,22.4,2.2,-28.1,22.3,2.3,-27.7,5.73,2.41,-28.7,26.3
2012-02-04 01:28:00,0.0,1.9129,0.0009,401.07,0.38,1.6,8.7,138.15,28.16,24.60,36.32,0.04,-272.74,-272.73,-49,559,-924,22.5,2.2,-28.0,22.4,2.3,-27.7,5.73,2.46,-28.6,26.5
2012-02-04 01:29:00,0.0,1.9130,0.0010,400.97,0.44,2.6,10.0,138.15,28.15,24.60,36.31,0.04,-272.73,-272.74,-49,559,-924,22.5,2.2,-28.0,22.4,2.3,-27.7,5.73,2.27,-28.5,26.7
2012-02-04 01:30:00,0.0,1.9130,0.0009,400.96,0.48,3.4,13.0,138.14,28.15,24.59,36.31,0.04,-272.74,-272.73,-49,559,-924,22.5,2.2,-28.0,22.4,2.3,-27.7,5.73,2.41,-28.4,26.8
2012-02-04 01:31:00,0.0,1.9129,0.0009,401.04,0.45,3.8,9.4,138.14,28.15,24.60,36.31,0.04,-272.73,-272.74,-48,559,-924,22.5,2.2,-28.0,22.5,2.3,-27.8,5.73,2.42,-28.3,26.9
2012-02-04 01:32:00,0.0,1.9130,0.0010,400.95,0.43,9.1,16.2,138.13,28.16,24.59,36.32,0.04,-272.74,-272.74,-49,559,-924,22.5,2.2,-28.1,22.5,2.3,-27.8,5.73,2.27,-28.2,27.0
2012-02-04 01:33:00,0.0,1.9130,0.0008,401.10,0.45,16.5,23.3,138.13,28.17,24.60,36.31,0.04,-272.74,-272.73,-49,559,-924,22.5,2.2,-28.1,22.5,2.3,-27.7,5.73,2.49,-28.2,27.1
2012-02-04 01:34:00,0.0,1.9133,0.0010,401.09,0.44,16.3,24.1,138.13,28.17,24.60,36.31,0.04,-272.74,-272.74,-48,559,-924,22.6,2.2,-28.1,22.5,2.3,-27.7,5.73,2.29,-28.1,27.2
2012-02-04 01:35:00,0.0,1.9138,0.0009,401.18,0.48,23.5,25.1,138.12,28.19,24.59,36.31,0.04,-272.73,-272.74,-49,559,-924,22.6,2.2,-28.1,22.6,2.3,-27.7,5.73,2.39,-28.0,27.2
2012-02-04 01:36:00,0.0,1.9137,0.0009,401.08,0.46,25.7,26.5,138.12,28.20,24.60,36.32,0.04,-272.74,-272.74,-48,559,-924,22.6,2.2,-28.1,22.6,2.3,-27.7,5.73,2.42,-27.9,27.3
2012-02-04 01:37:00,0.0,1.9144,0.0009,400.89,0.45,26.5,28.0,138.12,28.21,24.59,36.32,0.04,-272.74,-272.74,-48,560,-924,22.6,2.2,-28.0,22.6,2.3,-27.7,5.73,2.27,-27.9,27.4
2012-02-04 01:38:00,0.0,1.9145,0.0010,401.12,0.44,36.4,25.4,138.12,28.22,24.60,36.31,0.04,-272.74,-272.74,-49,559,-924,22.7,2.2,-28.1,22.7,2.3,-27.7,5.73,2.49,-27.8,27.4
2012-02-04 01:39:00,0.0,1.9149,0.0009,400.86,0.44,39.4,27.6,138.12,28.24,24.60,36.32,0.04,-272.74,-272.74,-48,560,-924,22.7,2.2,-28.1,22.7,2.3,-27.7,5.73,2.27,-27.8,27.5
2012-02-04 01:40:00,0.0,1.9150,0.0010,401.09,0.41,45.7,29.3,138.12,28.25,24.60,36.32,0.04,-272.74,-272.74,-48,560,-924,22.7,2.2,-28.0,22.7,2.3,-27.7,5.73,2.42,-27.7,27.5
2012-02-04 01:41:00,0.0,1.9154,0.0009,401.10,0.37,50.6,34.2,138.11,28.27,24.60,36.32,0.04,-272.73,-272.74,-49,559,-925,22.7,2.2,-28.1,22.7,2.3,-27.7,5.73,2.38,-27.6,27.5
2012-02-04 01:42:00,0.0,1.9163,0.0010,400.97,0.47,61.7,34.0,138.11,28.28,24.60,36.33,0.04,-272.73,-272.74,-48,560,-924,22.8,2.2,-28.1,22.8,2.3,-27.7,5.73,2.30,-27.6,27.6
2012-02-04 01:43:00,0.0,1.9165,0.0011,400.91,0.49,59.3,35.0,138.11,28.30,24.59,36.33,0.04,-272.74,-272.74,-48,560,-924,22.8,2.2,-28.1,22.8,2.2,-27.8,5.73,2.47,-27.5,27.6
2012-02-04 01:44:00,0.0,1.9163,0.0011,401.30,0.42,66.7,29.0,138.11,28.31,24.60,36.32,0.04,-272.74,-272.74,-49,560,-924,22.9,2.2,-28.0,22.8,2.2,-27.8,5.73,2.25,-27.5,27.7
2012-02-04 01:45:00,0.0,1.9171,0.0010,401.46,0.47,75.9,34.5,138.11,28.32,24.60,36.32,0.04,-272.74,-272.74,-47,560,-922,22.9,2.2,-28.1,22.9,2.2,-27.8,5.73,2.48,-27.4,27.6
2012-02-04 01:46:00,0.0,1.9172,0.0009,401.19,0.41,70.7,33.3,138.11,28.34,24.60,36.32,0.04,-272.74,-272.74,-48,560,-924,22.9,2.2,-28.0,22.9,2.2,-27.8,5.73,2.38,-27.4,27.2
2012-02-04 01:47:00,0.0,1.9165,0.0011,401.10,0.40,64.3,38.5,138.12,28.35,24.60,36.32,0.04,-272.74,-272.74,-48,560,-925,22.9,2.2,-28.0,22.9,2.2,-27.8,5.73,2.34,-27.5,27.0
2012-02-04 01:48:00,0.0,1.9162,0.0009,401.09,0.47,41.2,30.3,138.12,28.35,24.60,36.32,0.04,-272.74,-272.74,-48,561,-924,22.9,2.2,-28.0,22.8,2.2,-27.8,5.73,2.37,-27.7,26.7
2012-02-04 01:49:00,0.0,1.9158,0.0009,401.20,0.47,22.5,27.7,138.13,28.34,24.59,36.32,0.04,-272.74,-272.74,-49,561,-925,22.8,2.2,-28.1,22.8,2.2,-27.8,5.73,2.40,-27.8,26.4
2012-02-04 01:50:00,0.0,1.9150,0.0010,401.29,0.46,17.5,22.3,138.13,28.33,24.60,36.32,0.04,-272.74,-272.74,-49,561,-925,22.7,2.2,-28.2,22.7,2.2,-27.9,5.73,2.41,-28.0,26.1
2012-02-04 01:51:00,0.0,1.9147,0.0010,401.41,0.43,17.9,24.2,138.14,28.31,24.60,36.31,0.04,-272.74,-272.74,-49,561,-925,22.7,2.2,-28.2,22.6,2.2,-27.9,5.73,2.40,-28.2,26.0
2012-02-04 01:52:00,0.0,1.9145,0.0008,401.22,0.47,4.9,13.4,138.15,28.29,24.60,36.31,0.04,-272.73,-272.74,-49,560,-925,22.6,2.2,-28.2,22.5,2.3,-27.9,5.73,2.39,-28.3,25.9
2012-02-04 01:53:00,0.0,1.9145,0.0009,401.18,0.42,3.3,12.2,138.15,28.27,24.60,36.32,0.04,-272.73,-272.74,-49,560,-925,22.5,2.2,-28.3,22.5,2.3,-27.9,5.73,2.38,-28.5,25.6
2012-02-04 01:54:00,0.0,1.9140,0.0010,401.20,0.44,0.6,5.1,138.15,28.24,24.60,36.32,0.04,-272.74,-272.74,-48,562,-924,22.5,2.2,-28.3,22.4,2.3,-27.9,5.73,2.35,-28.6,25.5
2012-02-04 01:55:00,0.0,1.9143,0.0010,401.17,0.46,1.0,11.0,138.16,28.22,24.60,36.32,0.04,-272.73,-272.73,-49,560,-925,22.4,2.2,-28.3,22.3,2.3,-28.0,5.73,2.35,-28.7,25.5
2012-02-04 01:56:00,0.0,1.9135,0.0010,401.27,0.52,-0.4,3.0,138.16,28.19,24.60,36.32,0.04,-272.74,-272.74,-50,561,-925,22.4,2.2,-28.2,22.3,2.3,-28.0,5.73,2.39,-28.7,25.9
2012-02-04 01:57:00,0.0,1.9133,0.0010,401.20,0.43,0.1,4.3,138.16,28.17,24.60,36.32,0.04,-272.74,-272.74,-49,559,-927,22.4,2.2,-28.2,22.3,2.3,-28.0,5.73,2.31,-28.7,26.3
2012-02-04 01:58:00,0.0,1.9140,0.0009,401.15,0.48,0.7,7.4,138.15,28.16,24.60,36.32,0.04,-272.73,-272.74,-48,559,-924,22.4,2.2,-28.2,22.4,2.3,-28.0,5.73,2.31,-28.6,26.5
2012-02-04 01:59:00,0.0,1.9139,0.0009,401.09,0.46,2.6,12.0,138.15,28.15,24.59,36.31,0.04,-272.74,-272.74,-49,558,-924,22.5,2.2,-28.2,22.4,2.3,-27.9,5.73,2.48,-28.5,26.6
2012-02-04 02:00:00,1.0,1.8888,0.0174,385.84,10.60,2.5,8.6,138.14,28.15,24.60,36.32,0.04,-272.74,-272.74,-49,517,-924,22.5,2.2,-28.2,22.4,2.3,-27.9,5.73,2.29,-28.4,26.8
2012-02-04 02:01:00,1.0,1.8690,0.0008,373.92,0.43,11.8,17.9,138.14,28.15,24.60,36.33,0.04,-272.74,-272.74,-48,517,-924,22.5,2.2,-28.3,22.5,2.3,-27.9,5.73,2.34,-28.3,26.9
2012-02-04 02:02:00,1.0,1.8688,0.0010,374.02,0.34,15.7,20.7,138.13,28.15,24.60,36.33,0.04,-272.73,-272.73,-48,517,-924,22.5,2.2,-28.3,22.5,2.3,-27.9,5.73,2.47,-28.2,27.0
2012-02-04 02:03:00,1.0,1.8691,0.0008,374.05,0.44,16.6,20.0,138.13,28.16,24.59,36.33,0.04,-272.74,-272.74,-49,517,-924,22.5,2.2,-28.2,22.5,2.3,-27.9,5.73,2.25,-28.1,27.1
2012-02-04 02:04:00,1.0,1.8693,0.0008,374.15,0.49,24.3,26.6,138.13,28.17,24.59,36.32,0.04,-272.74,-272.74,-48,518,-924,22.6,2.2,-28.2,22.5,2.3,-27.9,5.73,2.45,-28.1,27.2
2012-02-04 02:05:00,0.0,1.8940,0.0176,389.18,10.69,21.6,26.3,138.12,28.18,24.59,36.32,0.04,-272.74,-272.74,-48,559,-924,22.6,2.2,-28.2,22.6,2.2,-28.0,5.73,2.32,-28.0,27.2
2012-02-04 02:06:00,0.0,1.9141,0.0009,401.58,0.37,23.5,29.4,138.12,28.19,24.60,36.31,0.04,-272.74,-272.74,-49,559,-924,22.6,2.2,-28.2,22.6,2.2,-27.9,5.73,2.32,-27.9,27.2
2012-02-04 02:07:00,0.0,1.9144,0.0007,401.50,0.48,34.8,32.4,138.12,28.20,24.60,36.32,0.04,-272.74,-272.74,-48,560,-924,22.7,2.2,-28.1,22.6,2.2,-27.9,5.73,2.48,-27.9,27.3
2012-02-04 02:08:00,0.0,1.9146,0.0013,401.56,0.40,37.9,29.3,138.12,28.21,24.60,36.32,0.04,-272.74,-272.74,-48,560,-924,22.7,2.2,-28.2,22.7,2.2,-27.9,5.73,2.26,-27.8,27.4
2012-02-04 02:09:00,0.0,1.9153,0.0009,401.49,0.44,41.5,31.8,138.12,28.23,24.60,36.32,0.04,-272.73,-272.74,-49,559,-924,22.7,2.2,-28.1,22.7,2.3,-27.7,5.73,2.45,-27.7,27.5
2012-02-04 02:10:00,0.0,1.9154,0.0010,401.52,0.37,56.9,32.9,138.11,28.24,24.60,36.32,0.04,-272.74,-272.74,-48,560,-925,22.7,2.2,-28.2,22.7,2.3,-27.7,5.73,2.36,-27.7,27.5
2012-02-04 02:11:00,0.0,1.9164,0.0009,401.59,0.43,52.8,31.1,138.11,28.26,24.60,36.32,0.04,-272.74,-272.74,-48,560,-924,22.8,2.2,-28.1,22.8,2.3,-27.7,5.73,2.31,-27.6,27.6
2012-02-04 02:12:00,0.0,1.9168,0.0010,401.49,0.49,64.6,32.1,138.11,28.27,24.60,36.33,0.04,-272.74,-272.74,-49,560,-924,22.8,2.2,-28.1,22.8,2.3,-27.7,5.73,2.47,-27.6,27.6
2012-02-04 02:13:00,0.0,1.9168,0.0008,401.50,0.37,68.2,33.1,138.11,28.29,24.60,36.32,0.04,-272.74,-272.74,-48,561,-924,22.9,2.2,-28.0,22.8,2.2,-27.8,5.73,2.25,-27.5,27.7
2012-02-04 02:14:00,0.0,1.9174,0.0008,401.82,0.44,73.6,37.1,138.11,28.30,24.60,36.32,0.04,-272.74,-272.74,-48,561,-924,22.9,2.2,-28.2,22.9,2.2,-27.7,5.73,2.46,-27.5,27.7
2012-02-04 02:15:00,0.0,1.9178,0.0011,401.44,0.38,72.3,37.4,138.11,28.32,24.60,36.33,0.04,-272.74,-272.74,-47,558,-924,22.9,2.2,-28.1,22.9,2.2,-27.7,5.73,2.32,-27.4,27.8
2012-02-04 02:16:00,0.0,1.9178,0.0010,401.47,0.48,74.9,34.4,138.11,28.33,24.60,36.33,0.04,-272.74,-272.74,-48,561,-924,23.0,2.2,-28.1,22.9,2.2,-27.7,5.73,2.32,-27.4,27.4
2012-02-04 02:17:00,0.0,1.9177,0.0009,401.72,0.39,56.6,33.4,138.11,28.34,24.60,36.32,0.04,-272.74,-272.74,-48,561,-925,22.9,2.2,-28.1,22.9,2.2,-27.7,5.73,2.41,-27.6,27.0
2012-02-04 02:18:00,0.0,1.9169,0.0009,401.99,0.36,56.2,34.2,138.12,28.34,24.60,36.33,0.04,-272.74,-272.74,-49,561,-924,22.9,2.2,-28.0,22.9,2.2,-27.7,5.73,2.39,-27.8,26.7